Skip Page Navigation
NASA JPL Caltech
NASA Logo - Jet Propulsion Laboratory + View the NASA Portal
+ Center for Near-Earth Object Studies
JPL Home Earth Solar System Stars & Galaxies Technology
JPL Solar System Dynamics
BODIES ORBITS EPHEMERIDES TOOLS PHYSICAL DATA DISCOVERY FAQ SITE MAP
IMPORTANT: The SSD Announcement email list is now available. Major changes are coming in the near future, including possible hostname and/or URL changes. To be notified of such changes, subscribe to this email list.

Please visit this page for more details.


JPL Small-Body Database Browser
Search: [ help ]  
212878 (2007 VA230)
Classification: Main-belt Asteroid          SPK-ID: 2212878
Ephemeris | Orbit Diagram | Orbital Elements | Mission Design | Physical Parameters | Discovery Circumstances ]

[ show orbit diagram ]
Orbital Elements at Epoch 2458600.5 (2019-Apr-27.0) TDB
Reference: JPL 11 (heliocentric ecliptic J2000)
 Element Value Uncertainty (1-sigma)   Units 
e .1223051558453993 5.1859e-08  
a 2.164382728209806 1.5701e-08 au
q 1.899667561327015 1.106e-07 au
i .7979539468958465 7.8522e-06 deg
node 329.4005833894126 0.00033452 deg
peri 302.7057448494871 0.00033636 deg
M 347.5620116417668 3.9936e-05 deg
tp 2458640.683444502493
(2019-Jun-06.18344450)
0.00012916 TDB
period 1163.05302788951
3.18
1.2656e-05
3.465e-08
d
yr
n .3095301687604565 3.3682e-09 deg/d
Q 2.429097895092597 1.7622e-08 au
  Orbit Determination Parameters
   # obs. used (total)      182  
   data-arc span      7469 days (20.45 yr)  
   first obs. used      1997-08-12  
   last obs. used      2018-01-23  
   planetary ephem.      DE431  
   SB-pert. ephem.      SB431-N16  
   condition code      0  
   norm. resid. RMS      .59214  
   source      ORB  
   producer      Otto Matic  
   solution date      2018-Feb-06 08:15:53  

Additional Information
 Earth MOID = .883073 au 
 Jupiter MOID = 2.64973 au 
 T_jup = 3.684 
[ show covariance matrix ]

Ephemeris | Orbit Diagram | Orbital Elements | Mission Design | Physical Parameters | Discovery Circumstances ]

Physical Parameter Table
Parameter Symbol Value Units Sigma Reference Notes
absolute magnitude H 17.8   n/a MPO433391  

212878 (2007 VA230)          Discovered 2007-Nov-07 by Spacewatch at Kitt Peak
Reference: 20090409/Numbers.arcLast Updated: 2009-04-10

Alternate Designations
 2007 VA230 = 2006 JV1 
Ephemeris | Orbit Diagram | Orbital Elements | Mission Design | Physical Parameters | Discovery Circumstances ]
ABOUT SSD CREDITS/AWARDS PRIVACY/COPYRIGHT GLOSSARY LINKS
FirstGov
(server date/time)  
NASA Home Page
Site Manager:   Ryan S. Park
Webmaster  Alan B. Chamberlin